SCP
-0 -0 -0 -0 -0 -0 -0 -0 0 0 0 0 0 0 0 0 0 0 0 0 0 0 0 0 0 0 0 0 0 0 0 0 0 -0 -0 -0 0 -0 -0 -0 -0 -0 -0
-0 -0 -0 -0 -0 -0 -0 -0 -0 -0 0 0 0 0 0 0 0 0 0 0 0 0 0 0 0 0 0 0 0 0 0 0 0 0 0 -0 -0 -0 -0 -0 -0 -0 -0
-0 -0 -0 -0 -0 -0 -0 -0 -0 -0 -0 -0 -0 0 0 0 0 0 0 0 0 0 0 0 0 0 0 0 0 0 0 0 0 0 0 0 0 -0 -0 -0 -0 -0 -0
-0 -0 -0 -0 -0 -0 -0 -0 -0 -0 -0 -0 -0 -0 0 0 0 0 0 0 0 0 0 0 0 0 0 0 0 0 0 0 0 0 0 0 0 0 -0 -0 -0 -0 0
-0 -0 -0 -0 -0 -0 -0 -0 -0 -0 -0 -0 -0 -0 0 0 0 0 0 0 0 0 0 0 0 0 0 0 0 0 0 0 0 0 0 0 0 -0 -0 0 0 -0 -0
-0 -0 -0 -0 -0 -0 -0 -0 -0 -0 -0 -0 -0 0 0 0 0 0 0 0 0 0 0 0 0 0 0 0 0 0 0 0 0 0 0 0 0 0 -0 -0 -0 -0 -0
-0 -0 -0 -0 0 0 -0 -0 -0 -0 -0 0 0 0 0 0 0 0 0 0 0 0 0 0 0 0 0 0 0 0 0 0 0 0 0 0 0 0 0 0 0 0 0
-0 -0 -0 -0 0 0 0 0 0 0 0 0 0 0 0 0 0 0 0 0 0 0 0 0 0 0 0 0 0 0 0 0 0 0 0 0 0 0 0 0 0 0 0
-0 -0 -0 -0 -0 0 0 0 0 0 0 0 0 0 0 0 0 0 0 0 0 0 0 0 0 0 0 0 0 0 0 0 0 0 0 0 0 0 0 0 0 0 0
0 -0 -0 -0 -0 -0 -0 0 0 0 0 0 0 0 0 0 0 0 0 0 0 0 0 0 0 0 0 0 0 0 0 0 0 0 0 0 0 0 0 0 0 0 0
0 0 -0 -0 -0 -0 -0 0 0 0 0 0 0 0 0 0 0 0 0 0 0 0 0 0 0 0 0 0 0 0 0 0 0 0 0 0 0 0 0 0 0 0 0
0 0 0 0 0 0 0 0 0 0 0 0 0 0 0 0 0 0 0 0 0 0 0 0 0 0 0 0 0 0 0 0 0 0 0 0 0 0 0 0 0 0 0
0 0 0 0 0 0 0 0 0 0 0 0 0 0 0 0 0 0 0 0 0 0 0 0 0 0 0 0 0 0 0 0 0 0 0 0 0 0 0 0 0 0 0
0 0 0 0 0 0 0 0 0 0 0 0 0 0 0 0 0 0 0 0 0 0 0 0 0 0 0 0 0 0 0 0 0 0 0 0 0 0 0 0 0 0 0
0 0 0 0 0 0 0 0 0 0 0 0 0 0 0 0 0 0 0 0 0 0 0 0 0 0 0 0 0 0 0 0 0 0 0 0 0 0 0 0 0 0 0
0 0 0 0 0 0 0 0 0 0 0 0 0 0 0 0 0 0 0 0 0 0 0 0 0 0 0 0 0 0 0 0 0 0 0 0 0 0 0 0 0 0 0
0 0 0 0 0 0 0 0 0 0 0 0 0 0 0 0 0 0 0 0 0 0 0 0 0 0 0 0 0 0 0 0 0 0 0 0 0 0 0 0 0 0 0
0 0 0 0 0 0 0 0 0 0 0 0 0 0 0 0 0 0 0 0 0 0 0 0 0 0 0 0 0 0 0 0 0 0 0 0 0 0 0 0 0 0 0
0 0 0 0 0 0 0 0 0 0 0 0 0 0 0 0 0 0 0 0 0 0 0 0 0 0 0 0 0 0 0 0 0 0 0 0 0 0 0 0 0 0 0
0 0 0 0 0 0 0 0 0 0 0 0 0 0 0 0 0 0 0 0 0 0 0 0 0 0 0 0 0 0 0 0 0 0 0 0 0 0 0 0 0 0 0
0 0 0 0 0 0 0 0 0 0 0 0 0 0 0 0 0 0 0 0 0 0 0 0 0 0 0 0 0 0 0 0 0 0 0 0 0 0 0 0 0 0 0
0 0 0 0 0 0 0 0 0 0 0 0 0 0 0 0 0 0 0 0 0 0 0 0 0 0 0 0 0 0 0 0 0 0 0 0 0 0 0 0 0 0 0
0 0 0 0 0 0 0 0 0 0 0 0 0 0 0 0 0 0 0 0 0 0 0 0 0 0 0 0 0 0 0 0 0 0 0 0 0 0 0 0 0 0 0
0 0 0 0 0 0 0 0 0 0 0 0 0 0 0 0 0 0 0 0 0 0 0 0 0 0 0 0 0 0 0 0 0 0 0 0 0 0 0 0 0 0 0
0 0 0 0 -0 -0 -0 -0 0 0 0 0 0 0 0 0 0 0 0 0 0 0 0 0 0 0 0 0 0 0 0 0 0 0 0 0 0 0 0 0 0 0 0
0 0 0 -0 -0 -0 -0 -0 -0 0 0 0 0 0 0 0 0 0 0 0 0 0 0 0 0 0 0 0 0 0 0 0 0 0 0 0 0 0 0 0 0 0 0
Wind_Speed_500mb
48 46 46 43 42 38 36 35 33 30 29 28 27 27 28 23 19 17 15 14 12 12 12 13 13 12 8 7 5 3 2 2 3 5 7 8 9 10 11 13 13 13 16
49 47 47 43 42 41 38 36 34 33 31 27 28 27 23 20 19 17 15 15 15 15 16 15 15 12 9 7 5 4 4 5 3 1 5 7 7 3 5 6 9 10 9
42 46 48 46 42 40 37 35 34 32 29 27 26 26 23 23 20 20 18 18 18 17 12 9 8 9 8 5 3 4 4 4 3 2 4 8 5 5 4 4 4 4 3
37 46 47 48 44 41 39 38 36 34 32 30 29 29 30 26 24 24 22 22 23 21 18 14 13 14 13 11 9 10 9 7 6 6 7 7 5 7 8 9 10 6 2
35 46 46 46 46 43 39 38 39 35 29 28 26 32 29 25 24 23 23 23 23 24 22 20 18 17 16 15 14 15 14 12 11 10 10 10 7 7 12 12 11 9 7
33 41 44 45 45 46 43 41 38 35 32 29 32 30 22 24 23 23 24 26 27 25 23 19 17 16 14 14 15 16 15 15 15 16 15 12 10 12 13 12 14 12 11
30 38 42 43 44 46 50 46 42 39 39 38 34 29 26 24 23 23 26 26 24 22 19 18 13 10 8 7 7 9 10 11 14 17 19 17 16 19 21 18 14 12 12
31 36 39 43 44 43 47 49 48 45 45 46 38 29 27 26 25 25 26 22 21 20 17 12 11 9 8 7 7 8 7 8 11 14 16 20 21 25 24 21 19 18 19
36 40 40 44 46 45 44 45 47 50 53 51 35 30 29 28 27 27 26 23 21 18 16 15 13 12 11 10 10 10 8 8 9 10 13 20 21 24 24 24 23 24 25
38 42 44 47 50 52 51 52 53 54 58 55 41 37 32 30 30 30 27 25 24 22 20 18 16 15 13 12 11 12 12 11 10 10 12 14 17 22 24 25 25 27 29
41 45 47 51 55 56 56 57 56 58 58 52 46 40 34 34 33 33 31 29 28 26 25 22 18 16 14 12 11 11 10 11 11 12 14 15 18 21 23 23 24 25 26
45 47 50 52 57 60 60 58 57 60 60 58 51 46 41 39 37 36 36 36 34 30 27 24 20 17 14 12 11 10 9 9 10 12 13 14 17 20 22 23 24 24 25
45 53 50 54 56 61 63 62 64 64 63 61 55 52 46 44 43 44 45 43 39 35 32 27 24 21 18 16 14 12 11 12 12 13 14 15 17 20 21 22 23 27 26
51 52 55 58 61 62 64 67 68 68 68 66 61 58 55 53 52 51 50 46 42 39 36 32 28 24 21 18 15 13 12 12 13 13 14 15 16 18 19 22 25 26 25
53 52 56 60 62 65 68 69 72 73 71 69 66 65 62 60 58 57 55 52 49 45 41 36 32 28 23 19 16 14 12 12 13 13 14 14 15 17 19 20 22 24 22
49 46 52 59 64 71 73 74 77 77 76 75 73 70 67 65 64 63 62 59 56 52 47 42 37 32 27 23 19 16 14 15 15 15 15 13 14 17 20 21 19 12 18
44 45 50 53 60 71 76 78 82 81 83 82 78 77 75 73 70 68 68 66 63 59 53 49 44 38 33 28 23 20 18 18 17 17 17 16 14 17 21 21 21 20 22
62 62 59 61 62 70 76 82 87 89 88 89 86 83 82 80 77 74 73 71 68 64 60 55 49 44 38 33 27 23 21 19 19 19 18 16 15 16 19 25 28 36 30
54 56 62 65 71 72 77 86 92 95 95 95 94 92 89 86 84 81 79 76 74 70 67 62 56 51 44 40 34 29 26 24 22 21 20 21 20 21 22 20 22 28 28
33 37 44 48 57 66 76 87 96 101 103 102 102 97 94 92 90 86 84 83 80 77 74 68 63 58 52 45 38 34 30 28 26 25 25 25 25 25 25 26 27 28 29
15 16 24 36 41 51 64 80 90 102 104 107 106 103 101 98 96 93 90 90 88 86 80 73 70 64 58 52 44 38 34 32 30 28 28 30 30 30 29 29 29 30 30
37 29 20 21 31 40 51 62 73 81 93 98 104 109 109 106 103 98 97 96 94 92 88 84 81 75 69 61 52 36 24 30 36 36 36 35 35 33 31 29 29 30 31
55 55 46 34 27 33 39 50 60 72 80 78 89 105 109 109 108 103 101 99 98 98 97 93 90 85 79 72 68 37 18 18 29 41 42 41 40 39 36 34 31 30 30
53 49 47 43 36 25 26 38 49 57 65 71 79 83 93 105 110 107 106 105 103 102 100 97 92 89 85 81 72 71 55 27 20 18 45 49 49 48 42 38 32 30 31
52 51 46 42 39 34 25 25 36 45 51 53 61 73 74 80 93 110 108 109 109 106 104 101 98 95 92 86 80 79 74 61 47 28 20 42 58 58 53 50 41 37 36
53 48 48 47 48 41 32 23 24 33 42 49 60 68 74 73 74 83 106 114 112 111 109 104 100 98 95 94 88 83 79 72 67 55 41 32 40 52 57 56 49 44 41
Wind_Direction_500mb
191 189 190 189 180 179 181 186 187 192 194 193 196 193 195 202 207 209 202 201 219 227 244 260 272 283 288 301 339 305 317 10 69 78 70 67 79 80 88 78 83 84 92
193 192 192 193 189 187 186 189 191 193 196 199 203 204 202 203 205 215 225 237 245 251 260 274 272 280 298 332 350 293 282 266 262 179 117 105 110 94 64 73 55 60 78
194 196 196 198 195 196 195 194 194 198 202 207 217 224 215 221 226 233 239 246 251 255 266 284 263 255 270 283 279 271 257 271 255 240 189 125 141 202 277 307 339 21 68
187 199 201 204 205 201 202 204 203 204 207 214 222 230 227 226 229 234 238 237 240 253 270 271 265 264 260 256 248 246 238 237 249 243 208 201 133 250 257 280 290 295 310
190 198 204 206 209 209 206 204 206 207 214 217 225 233 225 219 224 218 220 230 239 249 257 256 259 264 270 268 261 252 246 239 238 241 241 220 175 245 262 266 280 272 257
200 199 204 206 209 211 209 207 209 209 205 217 224 229 223 217 211 217 224 231 241 250 255 260 264 265 263 260 256 250 246 241 236 235 234 214 172 214 235 252 259 271 266
214 206 206 207 209 211 212 214 212 206 210 218 217 221 224 231 230 234 240 242 243 248 256 262 267 262 259 251 251 250 239 235 233 231 230 217 223 227 243 255 277 286 286
220 215 213 211 212 213 211 211 208 201 209 214 224 230 232 234 235 238 241 242 244 246 243 231 226 231 241 252 255 256 249 238 230 226 227 230 236 238 254 260 263 266 274
216 215 218 216 216 215 212 208 205 206 213 226 236 233 232 234 236 233 231 231 231 225 220 221 222 225 228 236 246 249 249 251 248 238 230 235 243 251 258 262 264 266 270
224 221 219 219 219 219 218 215 213 216 223 231 239 238 232 229 228 228 227 221 214 212 217 221 225 232 237 237 237 244 251 251 253 256 255 258 260 265 263 263 264 266 268
236 230 225 221 221 224 222 224 221 221 229 236 238 235 231 228 227 227 219 214 214 215 216 220 225 231 237 238 237 237 240 248 252 251 253 255 258 264 272 271 267 267 270
243 240 235 229 226 225 226 226 225 225 228 234 234 232 229 228 228 223 217 214 215 216 219 224 227 233 241 247 251 253 257 258 260 264 264 259 257 257 260 267 273 273 271
253 243 241 238 234 231 230 228 227 228 229 232 231 230 230 227 226 220 218 216 217 217 220 222 223 225 226 227 231 241 255 264 271 271 268 265 263 265 266 265 263 267 272
253 249 241 238 236 237 234 232 233 232 231 232 231 229 229 228 228 225 224 222 221 219 222 223 225 223 223 226 230 237 250 262 269 270 270 269 266 263 262 262 267 271 271
250 246 244 243 240 238 237 237 236 236 236 236 234 232 229 229 230 229 228 226 224 224 224 226 226 227 228 230 234 242 252 261 266 271 273 268 260 250 250 259 263 268 272
260 252 248 245 242 243 242 239 239 238 238 237 237 236 233 232 231 230 229 227 226 225 226 227 227 229 232 235 241 252 265 275 281 285 283 275 262 250 244 242 250 228 184
274 266 255 251 248 245 246 242 242 241 239 239 238 236 235 233 233 231 230 228 227 226 227 226 227 229 230 233 239 246 255 264 272 277 278 275 260 239 232 222 210 168 203
277 274 269 261 253 249 247 244 243 242 241 240 239 238 236 234 233 233 232 230 229 227 227 227 227 227 229 233 237 244 252 262 270 273 272 264 245 236 234 216 199 169 200
278 275 269 262 256 254 251 246 244 242 242 241 239 239 238 236 234 233 233 232 230 229 228 228 228 230 230 230 234 240 248 255 260 262 260 254 245 232 225 228 227 237 247
281 270 269 263 256 253 250 246 244 242 242 240 241 240 239 238 236 234 233 232 232 230 228 228 228 228 227 229 232 238 243 247 248 245 244 240 233 229 225 222 222 224 234
322 295 281 276 271 261 254 247 244 243 243 242 241 242 240 238 236 235 234 233 231 231 231 230 230 228 226 226 226 228 235 238 238 238 237 232 227 225 227 230 234 237 237
33 16 350 312 289 276 267 259 253 250 247 245 243 242 241 239 237 235 235 233 232 231 228 228 229 227 224 224 221 221 227 237 237 236 233 228 227 223 224 227 234 240 245
40 30 20 6 334 299 284 270 259 251 250 251 248 245 243 241 241 239 238 236 234 233 231 230 228 226 226 224 221 210 201 218 220 230 226 224 220 220 223 230 236 241 244
35 30 20 13 2 338 296 277 272 268 260 259 258 257 254 247 244 241 239 239 236 235 233 233 232 230 227 226 221 221 224 217 188 205 225 225 223 224 230 232 240 244 246
35 29 28 22 15 8 357 312 284 274 267 264 262 264 265 265 253 244 241 240 238 237 236 235 233 230 231 230 227 226 225 228 228 217 211 226 229 228 234 234 237 245 241
37 35 31 27 26 26 19 1 327 308 293 275 276 274 273 270 264 256 247 242 241 239 238 238 236 235 234 232 230 232 234 229 229 225 224 223 231 233 229 238 238 242 238
Wind_Speed_850mb
48 46 46 43 42 38 36 35 33 30 29 28 27 27 28 23 19 17 15 14 12 12 12 13 13 12 8 7 5 3 2 2 3 5 7 8 9 10 11 13 13 13 16
49 47 47 43 42 41 38 36 34 33 31 27 28 27 23 20 19 17 15 15 15 15 16 15 15 12 9 7 5 4 4 5 3 1 5 7 7 3 5 6 9 10 9
42 46 48 46 42 40 37 35 34 32 29 27 26 26 23 23 20 20 18 18 18 17 12 9 8 9 8 5 3 4 4 4 3 2 4 8 5 5 4 4 4 4 3
37 46 47 48 44 41 39 38 36 34 32 30 29 29 30 26 24 24 22 22 23 21 18 14 13 14 13 11 9 10 9 7 6 6 7 7 5 7 8 9 10 6 2
35 46 46 46 46 43 39 38 39 35 29 28 26 32 29 25 24 23 23 23 23 24 22 20 18 17 16 15 14 15 14 12 11 10 10 10 7 7 12 12 11 9 7
33 41 44 45 45 46 43 41 38 35 32 29 32 30 22 24 23 23 24 26 27 25 23 19 17 16 14 14 15 16 15 15 15 16 15 12 10 12 13 12 14 12 11
30 38 42 43 44 46 50 46 42 39 39 38 34 29 26 24 23 23 26 26 24 22 19 18 13 10 8 7 7 9 10 11 14 17 19 17 16 19 21 18 14 12 12
31 36 39 43 44 43 47 49 48 45 45 46 38 29 27 26 25 25 26 22 21 20 17 12 11 9 8 7 7 8 7 8 11 14 16 20 21 25 24 21 19 18 19
36 40 40 44 46 45 44 45 47 50 53 51 35 30 29 28 27 27 26 23 21 18 16 15 13 12 11 10 10 10 8 8 9 10 13 20 21 24 24 24 23 24 25
38 42 44 47 50 52 51 52 53 54 58 55 41 37 32 30 30 30 27 25 24 22 20 18 16 15 13 12 11 12 12 11 10 10 12 14 17 22 24 25 25 27 29
41 45 47 51 55 56 56 57 56 58 58 52 46 40 34 34 33 33 31 29 28 26 25 22 18 16 14 12 11 11 10 11 11 12 14 15 18 21 23 23 24 25 26
45 47 50 52 57 60 60 58 57 60 60 58 51 46 41 39 37 36 36 36 34 30 27 24 20 17 14 12 11 10 9 9 10 12 13 14 17 20 22 23 24 24 25
45 53 50 54 56 61 63 62 64 64 63 61 55 52 46 44 43 44 45 43 39 35 32 27 24 21 18 16 14 12 11 12 12 13 14 15 17 20 21 22 23 27 26
51 52 55 58 61 62 64 67 68 68 68 66 61 58 55 53 52 51 50 46 42 39 36 32 28 24 21 18 15 13 12 12 13 13 14 15 16 18 19 22 25 26 25
53 52 56 60 62 65 68 69 72 73 71 69 66 65 62 60 58 57 55 52 49 45 41 36 32 28 23 19 16 14 12 12 13 13 14 14 15 17 19 20 22 24 22
49 46 52 59 64 71 73 74 77 77 76 75 73 70 67 65 64 63 62 59 56 52 47 42 37 32 27 23 19 16 14 15 15 15 15 13 14 17 20 21 19 12 18
44 45 50 53 60 71 76 78 82 81 83 82 78 77 75 73 70 68 68 66 63 59 53 49 44 38 33 28 23 20 18 18 17 17 17 16 14 17 21 21 21 20 22
62 62 59 61 62 70 76 82 87 89 88 89 86 83 82 80 77 74 73 71 68 64 60 55 49 44 38 33 27 23 21 19 19 19 18 16 15 16 19 25 28 36 30
54 56 62 65 71 72 77 86 92 95 95 95 94 92 89 86 84 81 79 76 74 70 67 62 56 51 44 40 34 29 26 24 22 21 20 21 20 21 22 20 22 28 28
33 37 44 48 57 66 76 87 96 101 103 102 102 97 94 92 90 86 84 83 80 77 74 68 63 58 52 45 38 34 30 28 26 25 25 25 25 25 25 26 27 28 29
15 16 24 36 41 51 64 80 90 102 104 107 106 103 101 98 96 93 90 90 88 86 80 73 70 64 58 52 44 38 34 32 30 28 28 30 30 30 29 29 29 30 30
37 29 20 21 31 40 51 62 73 81 93 98 104 109 109 106 103 98 97 96 94 92 88 84 81 75 69 61 52 36 24 30 36 36 36 35 35 33 31 29 29 30 31
55 55 46 34 27 33 39 50 60 72 80 78 89 105 109 109 108 103 101 99 98 98 97 93 90 85 79 72 68 37 18 18 29 41 42 41 40 39 36 34 31 30 30
53 49 47 43 36 25 26 38 49 57 65 71 79 83 93 105 110 107 106 105 103 102 100 97 92 89 85 81 72 71 55 27 20 18 45 49 49 48 42 38 32 30 31
52 51 46 42 39 34 25 25 36 45 51 53 61 73 74 80 93 110 108 109 109 106 104 101 98 95 92 86 80 79 74 61 47 28 20 42 58 58 53 50 41 37 36
53 48 48 47 48 41 32 23 24 33 42 49 60 68 74 73 74 83 106 114 112 111 109 104 100 98 95 94 88 83 79 72 67 55 41 32 40 52 57 56 49 44 41
Wind_Direction_850mb
191 189 190 189 180 179 181 186 187 192 194 193 196 193 195 202 207 209 202 201 219 227 244 260 272 283 288 301 339 305 317 10 69 78 70 67 79 80 88 78 83 84 92
193 192 192 193 189 187 186 189 191 193 196 199 203 204 202 203 205 215 225 237 245 251 260 274 272 280 298 332 350 293 282 266 262 179 117 105 110 94 64 73 55 60 78
194 196 196 198 195 196 195 194 194 198 202 207 217 224 215 221 226 233 239 246 251 255 266 284 263 255 270 283 279 271 257 271 255 240 189 125 141 202 277 307 339 21 68
187 199 201 204 205 201 202 204 203 204 207 214 222 230 227 226 229 234 238 237 240 253 270 271 265 264 260 256 248 246 238 237 249 243 208 201 133 250 257 280 290 295 310
190 198 204 206 209 209 206 204 206 207 214 217 225 233 225 219 224 218 220 230 239 249 257 256 259 264 270 268 261 252 246 239 238 241 241 220 175 245 262 266 280 272 257
200 199 204 206 209 211 209 207 209 209 205 217 224 229 223 217 211 217 224 231 241 250 255 260 264 265 263 260 256 250 246 241 236 235 234 214 172 214 235 252 259 271 266
214 206 206 207 209 211 212 214 212 206 210 218 217 221 224 231 230 234 240 242 243 248 256 262 267 262 259 251 251 250 239 235 233 231 230 217 223 227 243 255 277 286 286
220 215 213 211 212 213 211 211 208 201 209 214 224 230 232 234 235 238 241 242 244 246 243 231 226 231 241 252 255 256 249 238 230 226 227 230 236 238 254 260 263 266 274
216 215 218 216 216 215 212 208 205 206 213 226 236 233 232 234 236 233 231 231 231 225 220 221 222 225 228 236 246 249 249 251 248 238 230 235 243 251 258 262 264 266 270
224 221 219 219 219 219 218 215 213 216 223 231 239 238 232 229 228 228 227 221 214 212 217 221 225 232 237 237 237 244 251 251 253 256 255 258 260 265 263 263 264 266 268
236 230 225 221 221 224 222 224 221 221 229 236 238 235 231 228 227 227 219 214 214 215 216 220 225 231 237 238 237 237 240 248 252 251 253 255 258 264 272 271 267 267 270
243 240 235 229 226 225 226 226 225 225 228 234 234 232 229 228 228 223 217 214 215 216 219 224 227 233 241 247 251 253 257 258 260 264 264 259 257 257 260 267 273 273 271
253 243 241 238 234 231 230 228 227 228 229 232 231 230 230 227 226 220 218 216 217 217 220 222 223 225 226 227 231 241 255 264 271 271 268 265 263 265 266 265 263 267 272
253 249 241 238 236 237 234 232 233 232 231 232 231 229 229 228 228 225 224 222 221 219 222 223 225 223 223 226 230 237 250 262 269 270 270 269 266 263 262 262 267 271 271
250 246 244 243 240 238 237 237 236 236 236 236 234 232 229 229 230 229 228 226 224 224 224 226 226 227 228 230 234 242 252 261 266 271 273 268 260 250 250 259 263 268 272
260 252 248 245 242 243 242 239 239 238 238 237 237 236 233 232 231 230 229 227 226 225 226 227 227 229 232 235 241 252 265 275 281 285 283 275 262 250 244 242 250 228 184
274 266 255 251 248 245 246 242 242 241 239 239 238 236 235 233 233 231 230 228 227 226 227 226 227 229 230 233 239 246 255 264 272 277 278 275 260 239 232 222 210 168 203
277 274 269 261 253 249 247 244 243 242 241 240 239 238 236 234 233 233 232 230 229 227 227 227 227 227 229 233 237 244 252 262 270 273 272 264 245 236 234 216 199 169 200
278 275 269 262 256 254 251 246 244 242 242 241 239 239 238 236 234 233 233 232 230 229 228 228 228 230 230 230 234 240 248 255 260 262 260 254 245 232 225 228 227 237 247
281 270 269 263 256 253 250 246 244 242 242 240 241 240 239 238 236 234 233 232 232 230 228 228 228 228 227 229 232 238 243 247 248 245 244 240 233 229 225 222 222 224 234
322 295 281 276 271 261 254 247 244 243 243 242 241 242 240 238 236 235 234 233 231 231 231 230 230 228 226 226 226 228 235 238 238 238 237 232 227 225 227 230 234 237 237
33 16 350 312 289 276 267 259 253 250 247 245 243 242 241 239 237 235 235 233 232 231 228 228 229 227 224 224 221 221 227 237 237 236 233 228 227 223 224 227 234 240 245
40 30 20 6 334 299 284 270 259 251 250 251 248 245 243 241 241 239 238 236 234 233 231 230 228 226 226 224 221 210 201 218 220 230 226 224 220 220 223 230 236 241 244
35 30 20 13 2 338 296 277 272 268 260 259 258 257 254 247 244 241 239 239 236 235 233 233 232 230 227 226 221 221 224 217 188 205 225 225 223 224 230 232 240 244 246
35 29 28 22 15 8 357 312 284 274 267 264 262 264 265 265 253 244 241 240 238 237 236 235 233 230 231 230 227 226 225 228 228 217 211 226 229 228 234 234 237 245 241
37 35 31 27 26 26 19 1 327 308 293 275 276 274 273 270 264 256 247 242 241 239 238 238 236 235 234 232 230 232 234 229 229 225 224 223 231 233 229 238 238 242 238